(97350) = 2000 AT14 = 2001 FX73

Discovered at Socorro on 2000-01-03 by LINEAR.

Orbit

Orbit type: Main Belt

Note: WebGL enabled browser required.

epoch2023-09-13.0
epoch JD2460200.5
perihelion date2020-05-29.79455
perihelion JD2458999.29455
argument of perihelion (°)8.90188
ascending node (°)57.68566
inclination (°)3.77902
eccentricity0.1374251
perihelion distance (AU)2.5727435
Tisserand w.r.t. Jupiter3.2
ΔV w.r.t. Earth (km/sec)10.1
semimajor axis (AU)2.9826321
mean anomaly (°)229.83788
mean daily motion (°/day)0.19133940
aphelion distance (AU)3.393
period (years)5.15
P-vector [x]0.39763171
P-vector [y]0.83772230
P-vector [z]0.37431321
Q-vector [x]-0.91585283
Q-vector [y]0.33760441
Q-vector [z]0.21734040
absolute magnitude14.74
phase slope0.15
uncertainty0
referenceMPO 777315
observations used1409
oppositions21
arc length (days)11364
first opposition used1991
last opposition used2022
residual rms (arc-secs)0.68
perturbers coarse indicatorM-v
perturbers precise indicator003Ek
first observation date used1991-04-13.0
last observation date used2022-05-24.0
computer nameMPCLINUX
JD of orbit computation2456966.873986
perihelion JD uncertainty (days)8.7829E-05
argument of perihelion uncertainty (°)6.0178E-05
ascending node uncertainty (°)5.7742E-05
inclination uncertainty (°)4.6792E-06
eccentricity uncertainty 4.8550E-08
perihelion distance uncertainty (AU)1.5436E-07
Minimum Orbit Intersection Distances (in AU)
for orbit epoch: 2460200.5, reference: E2023-VB5
Mercury2.26395
Venus1.85166
Earth1.58543
Mars1.02681
Jupiter1.90574
Saturn6.4009
Uranus15.3343
Neptune27.0479

Observations

1434 total observations over interval: 1991 04 13.36503 – 2022 05 24.626922
These data are available for download (format description).

Date (UT) J2000 RA J2000 Dec Magn Location Ref
1991 04 13.36503 13 42 36.84 -07 27 46.6 20.3 V 691 – Steward Observatory, Kitt Peak-Spacewatch MPS 77876
1991 04 13.39773 13 42 35.25 -07 27 39.4 20.9 V 691 – Steward Observatory, Kitt Peak-Spacewatch MPS 77876
1991 04 13.41887 13 42 34.25 -07 27 34.6 21.5 V 691 – Steward Observatory, Kitt Peak-Spacewatch MPS 77876
1993 08 20.27743 23 40 02.18 -08 07 08.7 18.4   809 – European Southern Observatory, La Silla MPS 33201
1993 08 20.29271 23 40 01.67 -08 07 12.4   809 – European Southern Observatory, La Silla MPS 33201
1993 08 20.30799 23 40 01.03 -08 07 15.8   809 – European Southern Observatory, La Silla MPS 33201
1998 08 17.35421 22 40 51.10 -14 31 20.2 18.8   704 – Lincoln Laboratory ETS, New Mexico MPS 29505
1998 08 17.39663 22 40 49.22 -14 31 33.1 19.6   704 – Lincoln Laboratory ETS, New Mexico MPS 29505
1998 08 17.41753 22 40 48.29 -14 31 37.4 19.6   704 – Lincoln Laboratory ETS, New Mexico MPS 29505
1998 08 17.43848 22 40 47.20 -14 31 46.0 20.1   704 – Lincoln Laboratory ETS, New Mexico MPS 29505
1999 12 07.29850 05 57 48.32 +26 04 37.9 18.2   704 – Lincoln Laboratory ETS, New Mexico MPS 29505
1999 12 07.31309 05 57 47.55 +26 04 39.5 18.0   704 – Lincoln Laboratory ETS, New Mexico MPS 29505
1999 12 07.32765 05 57 46.67 +26 04 40.7 18.9   704 – Lincoln Laboratory ETS, New Mexico MPS 29505
1999 12 07.34231 05 57 45.90 +26 04 42.3 17.9   704 – Lincoln Laboratory ETS, New Mexico MPS 29505
2000 01 03.22787 05 32 33.24 +26 30 31.1 18.6   704 – Lincoln Laboratory ETS, New Mexico MPS 9226
2000 01 03.24265 05 32 32.51 +26 30 31.2 18.9   704 – Lincoln Laboratory ETS, New Mexico MPS 9226
2000 01 03.25743 05 32 31.70 +26 30 31.4 18.7   704 – Lincoln Laboratory ETS, New Mexico MPS 9226
2000 01 03.27225 05 32 31.00 +26 30 32.0 18.5   704 – Lincoln Laboratory ETS, New Mexico MPS 9226
2000 01 03.28707 05 32 30.20 +26 30 31.4 18.4   704 – Lincoln Laboratory ETS, New Mexico MPS 9226
2000 01 04.22221 05 31 44.34 +26 30 44.8 18.2   704 – Lincoln Laboratory ETS, New Mexico MPS 9226
2000 01 04.23696 05 31 43.62 +26 30 44.7 18.8   704 – Lincoln Laboratory ETS, New Mexico MPS 9226
2000 01 04.25157 05 31 42.83 +26 30 45.6 18.1   704 – Lincoln Laboratory ETS, New Mexico MPS 9226
2000 01 04.26622 05 31 42.10 +26 30 46.2 18.9   704 – Lincoln Laboratory ETS, New Mexico MPS 9226
2000 01 04.28087 05 31 41.33 +26 30 45.7 18.8   704 – Lincoln Laboratory ETS, New Mexico MPS 9226
2000 01 10.16344 05 27 18.39 +26 31 23.9 19.6   704 – Lincoln Laboratory ETS, New Mexico MPS 9226
2000 01 10.19337 05 27 17.12 +26 31 24.0 18.6   704 – Lincoln Laboratory ETS, New Mexico MPS 9226
2000 01 10.20833 05 27 16.56 +26 31 26.3 19.6   704 – Lincoln Laboratory ETS, New Mexico MPS 9226
2001 03 03.30880 12 35 03.57 +01 12 26.9 19.2   704 – Lincoln Laboratory ETS, New Mexico MPS 29582
2001 03 03.32191 12 35 02.93 +01 12 31.6 19.2   704 – Lincoln Laboratory ETS, New Mexico MPS 29582
2001 03 03.33504 12 35 02.45 +01 12 34.9 19.7   704 – Lincoln Laboratory ETS, New Mexico MPS 29582
2001 03 03.34817 12 35 01.95 +01 12 37.8 19.0   704 – Lincoln Laboratory ETS, New Mexico MPS 29582
2001 03 03.36132 12 35 01.44 +01 12 41.0 19.2   704 – Lincoln Laboratory ETS, New Mexico MPS 29582
2001 03 19.25006 12 23 43.88 +02 24 18.7 18.8 R 699 – Lowell Observatory-LONEOS MPS 28399
2001 03 19.28668 12 23 42.13 +02 24 28.5   699 – Lowell Observatory-LONEOS MPS 28399
2001 03 19.32100 12 23 40.49 +02 24 37.8 19.4   704 – Lincoln Laboratory ETS, New Mexico MPS 28399
2001 03 19.32337 12 23 40.36 +02 24 38.2   699 – Lowell Observatory-LONEOS MPS 28399
2001 03 19.33425 12 23 39.83 +02 24 41.6 19.7   704 – Lincoln Laboratory ETS, New Mexico MPS 28399
2001 03 19.36017 12 23 38.52 +02 24 48.5   699 – Lowell Observatory-LONEOS MPS 28399
2001 03 19.36072 12 23 38.51 +02 24 47.8 19.5   704 – Lincoln Laboratory ETS, New Mexico MPS 28399
2001 03 26.31224 12 18 10.53 +02 56 12.9 19.9   704 – Lincoln Laboratory ETS, New Mexico MPS 28399
2001 03 26.32472 12 18 09.92 +02 56 16.2 19.0   704 – Lincoln Laboratory ETS, New Mexico MPS 28399
2001 03 26.33718 12 18 09.26 +02 56 19.9 18.7   704 – Lincoln Laboratory ETS, New Mexico MPS 28399
2001 03 26.34964 12 18 08.72 +02 56 23.5 18.7   704 – Lincoln Laboratory ETS, New Mexico MPS 28399
2001 04 16.162420 12 03 11.618 +04 10 18.62 20.20 V 645 – Apache Point-Sloan Digital Sky Survey MPS 79634
2001 04 16.165892 12 03 11.493 +04 10 19.12 20.94   645 – Apache Point-Sloan Digital Sky Survey MPS 79634
2001 04 24.14591 11 58 54.77 +04 26 02.6 19.3 R 699 – Lowell Observatory-LONEOS MPS 30252
2001 04 24.18328 11 58 53.65 +04 26 07.3   699 – Lowell Observatory-LONEOS MPS 30252
2001 04 24.22084 11 58 52.53 +04 26 09.2   699 – Lowell Observatory-LONEOS MPS 30252
2001 04 24.25848 11 58 51.44 +04 26 11.5   699 – Lowell Observatory-LONEOS MPS 30252
2003 07 08.38839 22 01 59.19 -17 27 35.5 18.6   644 – Palomar Mountain/NEAT MPS 82211
2003 07 08.40955 22 01 58.78 -17 27 39.4 18.4   644 – Palomar Mountain/NEAT MPS 82211
2003 07 08.43071 22 01 58.41 -17 27 43.6 18.4   644 – Palomar Mountain/NEAT MPS 82211
2004 09 09.07675 04 32 46.49 +21 05 30.1 19.1 R 599 – Campo Imperatore-CINEOS MPS 112533
2004 09 09.08830 04 32 47.16 +21 05 32.3 18.7 R 599 – Campo Imperatore-CINEOS MPS 112533
2004 09 09.09962 04 32 47.69 +21 05 34.4 19.7 R 599 – Campo Imperatore-CINEOS MPS 112533
2004 11 10.39006 04 39 06.58 +22 37 56.2 18.4 V 691 – Steward Observatory, Kitt Peak-Spacewatch MPS 119203
2004 11 10.41637 04 39 05.36 +22 37 56.6 18.2 V 691 – Steward Observatory, Kitt Peak-Spacewatch MPS 119203
2004 11 10.44250 04 39 04.16 +22 37 56.8 18.3 V 691 – Steward Observatory, Kitt Peak-Spacewatch MPS 119203
2004 11 18.26231 04 32 43.14 +22 38 27.1 18.8   704 – Lincoln Laboratory ETS, New Mexico MPS 119776
2004 11 18.27456 04 32 42.29 +22 38 26.6 18.9   704 – Lincoln Laboratory ETS, New Mexico MPS 119776
2004 11 18.28677 04 32 41.78 +22 38 27.3 18.6   704 – Lincoln Laboratory ETS, New Mexico MPS 119776
2004 11 18.29908 04 32 41.14 +22 38 27.5 18.7   704 – Lincoln Laboratory ETS, New Mexico MPS 119776
2004 11 21.47202 04 29 50.66 +22 37 51.2 19.0   608 – Haleakala-AMOS MPS 120331
2004 11 21.48276 04 29 50.04 +22 37 51.9 18.5   608 – Haleakala-AMOS MPS 120331
2004 11 21.49317 04 29 49.49 +22 37 50.7 19.6   608 – Haleakala-AMOS MPS 120331
2004 11 21.94351 04 29 25.02 +22 37 39.4 17.7 R A41 – Rezman Observatory, Kamnik MPS 120331
2004 11 21.96212 04 29 23.83 +22 37 40.3 18.1 R A41 – Rezman Observatory, Kamnik MPS 120331
2004 11 21.98016 04 29 22.83 +22 37 40.1 18.7 R A41 – Rezman Observatory, Kamnik MPS 120331
2004 12 02.27035 04 19 42.81 +22 32 41.9 17.8   704 – Lincoln Laboratory ETS, New Mexico MPS 120331
2004 12 02.28338 04 19 42.05 +22 32 41.8 18.5   704 – Lincoln Laboratory ETS, New Mexico MPS 120331
2004 12 02.29642 04 19 41.31 +22 32 41.6 18.3   704 – Lincoln Laboratory ETS, New Mexico MPS 120331
2004 12 02.31050 04 19 40.46 +22 32 40.3 18.4   704 – Lincoln Laboratory ETS, New Mexico MPS 120331
2004 12 02.32302 04 19 39.69 +22 32 40.2 18.2   704 – Lincoln Laboratory ETS, New Mexico MPS 120331
2004 12 08.31353 04 14 08.43 +22 28 22.9 17.7   704 – Lincoln Laboratory ETS, New Mexico MPS 121100
2004 12 08.33732 04 14 07.11 +22 28 21.3 17.8   704 – Lincoln Laboratory ETS, New Mexico MPS 121100
2004 12 08.35269 04 14 06.25 +22 28 21.0 17.8   704 – Lincoln Laboratory ETS, New Mexico MPS 121100
2004 12 08.36881 04 14 05.37 +22 28 19.4 18.0   704 – Lincoln Laboratory ETS, New Mexico MPS 121101
2004 12 10.21085 04 12 28.07 +22 26 54.9 18.6   704 – Lincoln Laboratory ETS, New Mexico MPS 121568
2004 12 10.22309 04 12 27.42 +22 26 54.5 18.5   704 – Lincoln Laboratory ETS, New Mexico MPS 121568
2004 12 10.23533 04 12 26.73 +22 26 53.4 18.5   704 – Lincoln Laboratory ETS, New Mexico MPS 121568
2004 12 10.24756 04 12 26.07 +22 26 53.0 18.4   704 – Lincoln Laboratory ETS, New Mexico MPS 121568
2004 12 10.25981 04 12 25.41 +22 26 52.9 18.1   704 – Lincoln Laboratory ETS, New Mexico MPS 121568
2004 12 11.92226 04 10 59.83 +22 25 34.8 17.7 R 599 – Campo Imperatore-CINEOS MPS 121568
2004 12 11.93220 04 10 59.31 +22 25 34.3 17.6 R 599 – Campo Imperatore-CINEOS MPS 121568
2004 12 11.94209 04 10 58.79 +22 25 33.8 17.6 R 599 – Campo Imperatore-CINEOS MPS 121568
